period_start,C,m1,H,J0,J1,J2,J3,J4,J5,JA,JB,JC,JD,JJ,JK,JN,#
2018-01-25 00:04:12,0.07,2.24,0.00,26.13,26.50,29.36,14.00,47.01,1044.96,2029.99,2595.96,2540.10,2859.72,599.93,606.18,23.41,0000 0000 0000 0000 000000
2018-01-25 00:09:13,0.06,2.24,0.00,26.13,26.48,29.37,13.94,46.98,1044.96,2029.99,2594.89,2539.45,2858.94,599.62,605.86,23.46,0000 0000 0000 0000 000000
2018-01-25 00:14:14,0.06,2.24,0.00,26.14,26.46,29.31,13.96,46.97,1044.96,2029.99,2593.80,2538.86,2858.07,599.91,606.06,23.51,0000 0000 0000 0000 000000
2018-01-25 00:19:16,0.07,2.25,0.00,26.15,26.44,29.20,14.06,46.98,1044.95,2030.00,2592.75,2538.08,2857.25,600.11,606.33,23.56,0000 0000 0000 0000 000000
2018-01-25 00:24:17,0.06,2.25,0.00,26.15,26.42,29.17,14.00,46.93,1044.95,2030.01,2591.70,2537.56,2856.56,599.67,605.89,23.61,0000 0000 0000 0000 000000
2018-01-25 00:29:19,0.06,2.25,0.00,26.12,26.40,29.19,13.98,46.91,1044.94,2030.04,2590.53,2536.88,2855.71,599.91,606.11,23.66,0000 0000 0000 0000 000000
2018-01-25 00:34:20,0.06,2.26,0.00,26.15,26.38,29.16,13.99,46.91,1044.94,2030.06,2589.44,2536.06,2854.87,599.81,605.93,23.71,0000 0000 0000 0000 000000
2018-01-25 00:39:21,0.07,2.26,0.00,26.14,26.36,29.13,14.04,46.78,1044.93,2030.09,2588.45,2535.40,2853.97,600.18,606.45,23.76,0000 0000 0000 0000 000000
2018-01-25 00:44:23,0.09,2.26,0.00,26.17,26.35,29.10,14.02,46.80,1044.93,2030.38,2587.28,2534.74,2853.07,600.25,606.40,23.81,0000 0000 0000 0000 000000
2018-01-25 00:49:24,0.10,2.27,0.00,26.15,26.33,29.09,13.97,46.90,1044.90,2030.62,2585.99,2533.98,2852.16,600.00,606.17,23.86,0000 0000 0000 0000 000000
2018-01-25 00:54:26,0.10,2.27,0.00,26.16,26.32,29.08,13.99,46.68,1044.79,2030.90,2584.83,2533.18,2851.41,600.17,606.33,23.91,0000 0000 0000 0000 000000
2018-01-25 00:59:27,0.07,2.28,0.00,26.14,26.31,29.06,14.04,46.77,1044.70,2030.93,2583.72,2532.45,2850.50,599.94,606.13,23.96,0000 0000 0000 0000 000000
2018-01-25 01:04:28,0.05,2.28,0.00,26.16,26.30,29.04,13.94,46.63,1044.57,2030.97,2582.66,2531.86,2849.62,599.81,605.83,24.01,0000 0000 0000 0000 000000
2018-01-25 01:09:30,0.06,2.29,0.00,26.16,26.29,29.06,13.90,46.63,1044.63,2030.96,2581.67,2531.04,2848.70,600.03,606.01,24.06,0000 0000 0000 0000 000000
2018-01-25 01:14:31,0.07,2.29,0.00,26.16,26.27,29.03,13.93,46.76,1044.51,2030.98,2580.48,2530.26,2847.90,600.03,606.16,24.11,0000 0000 0000 0000 000000
2018-01-25 01:19:32,0.06,2.29,0.00,26.16,26.27,29.03,13.97,46.76,1044.46,2030.99,2579.27,2529.64,2847.05,600.07,605.96,24.16,0000 0000 0000 0000 000000
2018-01-25 01:24:34,0.05,2.30,0.00,26.16,26.25,29.01,13.96,46.85,1044.47,2030.99,2578.22,2529.00,2846.18,599.89,605.82,24.21,0000 0000 0000 0000 000000
2018-01-25 01:29:35,0.07,2.30,0.00,26.18,26.25,29.02,13.92,46.77,1044.47,2030.99,2577.18,2528.21,2845.42,599.83,605.76,24.26,0000 0000 0000 0000 000000
2018-01-25 01:34:36,0.05,2.30,0.00,26.14,26.25,29.02,13.96,46.84,1044.47,2030.99,2576.16,2527.70,2844.67,599.93,605.90,24.31,0000 0000 0000 0000 000000
2018-01-25 01:39:38,0.06,2.31,0.00,26.14,26.24,29.01,13.85,46.75,1044.45,2031.00,2574.97,2526.85,2843.81,599.92,605.85,24.36,0000 0000 0000 0000 000000
2018-01-25 01:44:39,0.07,2.31,0.00,26.12,26.22,29.00,13.98,46.76,1044.45,2031.00,2573.80,2526.03,2842.90,600.09,606.02,24.41,0000 0000 0000 0000 000000
2018-01-25 01:49:40,0.08,2.31,0.00,26.12,26.22,29.00,13.88,46.81,1044.41,2031.00,2572.60,2525.20,2841.93,599.77,605.65,24.46,0000 0000 0000 0000 000000
2018-01-25 01:54:42,0.07,2.32,0.00,26.12,26.22,29.00,13.99,46.79,1044.21,2031.00,2571.41,2524.38,2841.04,600.22,606.09,24.51,0000 0000 0000 0000 000000
2018-01-25 01:59:43,0.07,2.32,0.00,26.10,26.22,29.00,13.87,46.74,1044.02,2031.00,2570.22,2523.65,2840.12,599.70,605.53,24.56,0000 0000 0000 0000 000000
2018-01-25 02:04:45,0.05,2.32,0.00,26.13,26.22,28.99,13.88,46.72,1043.97,2031.00,2569.29,2522.98,2839.20,599.93,605.58,24.61,0000 0000 0000 0000 000000
2018-01-25 02:09:46,0.07,2.33,0.00,26.12,26.22,29.00,13.92,46.77,1043.96,2031.00,2568.41,2522.16,2838.32,599.76,605.37,24.66,0000 0000 0000 0000 000000
2018-01-25 02:14:47,0.07,2.33,0.00,26.10,26.22,29.00,13.95,46.77,1043.96,2031.00,2567.09,2521.49,2837.52,599.97,605.69,24.71,0000 0000 0000 0000 000000
2018-01-25 02:19:49,0.06,2.33,0.00,26.09,26.22,29.01,13.91,46.75,1043.94,2031.00,2565.97,2520.76,2836.69,599.84,605.63,24.76,0000 0000 0000 0000 000000
2018-01-25 02:24:50,0.06,2.34,0.00,26.09,26.22,29.01,13.87,46.75,1043.87,2031.00,2564.83,2520.01,2835.78,599.57,605.18,24.81,0000 0000 0000 0000 000000
2018-01-25 02:29:51,0.06,2.34,0.00,26.10,26.22,29.02,13.86,46.76,1043.67,2031.00,2563.87,2519.26,2834.95,600.07,605.59,24.86,0000 0000 0000 0000 000000
2018-01-25 02:34:53,0.07,2.34,0.00,26.10,26.22,29.03,14.03,46.83,1043.50,2031.00,2562.75,2518.57,2834.07,600.26,605.75,24.92,0000 0000 0000 0000 000000
2018-01-25 02:39:54,0.05,2.35,0.00,26.14,26.22,29.03,13.88,46.70,1043.49,2031.00,2561.68,2517.94,2833.20,600.15,605.54,24.97,0000 0000 0000 0000 000000
2018-01-25 02:44:55,0.07,2.35,0.00,26.10,26.22,29.03,14.00,46.74,1043.50,2031.00,2560.77,2517.10,2832.42,600.04,605.55,25.02,0000 0000 0000 0000 000000
2018-01-25 02:49:57,0.06,2.35,0.00,26.08,26.22,29.04,13.91,46.77,1043.48,2031.00,2559.78,2516.56,2831.67,599.90,605.50,25.07,0000 0000 0000 0000 000000
2018-01-25 02:54:58,0.05,2.36,0.00,26.12,26.22,29.05,14.00,46.88,1043.47,2031.00,2558.84,2515.83,2830.78,600.14,605.54,25.12,0000 0000 0000 0000 000000
2018-01-25 02:59:59,0.05,2.36,0.00,26.15,26.22,29.05,13.98,46.75,1043.48,2031.00,2557.90,2515.01,2829.97,600.23,605.55,25.17,0000 0000 0000 0000 000000
2018-01-25 03:05:00,0.09,2.37,0.00,26.15,26.22,29.05,13.90,46.71,1043.47,2031.00,2556.63,2514.10,2828.85,599.90,605.20,25.22,0000 0000 0000 0000 000000
2018-01-25 03:10:02,0.06,2.37,0.00,26.11,26.23,29.07,13.91,46.76,1043.47,2031.00,2555.67,2513.25,2827.99,599.57,604.99,25.27,0000 0000 0000 0000 000000
2018-01-25 03:15:03,0.07,2.37,0.00,26.13,26.25,29.08,14.03,46.82,1043.46,2031.00,2554.58,2512.64,2827.15,600.21,605.58,25.32,0000 0000 0000 0000 000000
2018-01-25 03:20:05,0.05,2.38,0.00,26.15,26.25,29.07,13.93,46.71,1043.47,2031.00,2553.52,2511.99,2826.25,600.02,605.33,25.37,0000 0000 0000 0000 000000
2018-01-25 03:25:06,0.06,2.38,0.00,26.14,26.25,29.08,14.02,46.81,1043.43,2031.00,2552.74,2511.25,2825.50,600.09,605.40,25.42,0000 0000 0000 0000 000000
2018-01-25 03:30:07,0.05,2.38,0.00,26.16,26.25,29.09,13.97,46.78,1043.45,2030.99,2551.90,2510.68,2824.77,600.07,605.39,25.47,0000 0000 0000 0000 000000
2018-01-25 03:35:09,0.06,2.39,0.00,26.10,26.26,29.12,13.88,46.68,1043.45,2030.99,2550.74,2509.97,2823.97,599.95,605.36,25.52,0000 0000 0000 0000 000000
2018-01-25 03:40:10,0.07,2.39,0.00,26.16,26.27,29.12,14.04,46.77,1043.41,2030.99,2549.76,2509.17,2823.09,600.10,605.37,25.57,0000 0000 0000 0000 000000
2018-01-25 03:45:11,0.08,2.39,0.00,26.18,26.27,29.13,13.99,46.82,1043.29,2030.99,2548.52,2508.38,2822.17,600.21,605.50,25.62,0000 0000 0000 0000 000000
2018-01-25 03:50:12,0.05,2.40,0.00,26.16,26.27,29.15,13.83,46.66,1043.10,2030.99,2547.53,2507.87,2821.40,599.81,604.92,25.67,0000 0000 0000 0000 000000
2018-01-25 03:55:14,0.06,2.40,0.00,26.11,26.28,29.14,13.88,46.64,1043.23,2030.98,2546.61,2507.08,2820.66,600.02,605.30,25.72,0000 0000 0000 0000 000000
2018-01-25 04:00:16,0.07,2.40,0.00,26.12,26.29,29.15,13.85,46.59,1043.11,2030.99,2545.51,2506.37,2819.79,599.55,604.87,25.77,0000 0000 0000 0000 000000
2018-01-25 04:05:17,0.08,2.41,0.00,26.13,26.30,29.16,13.97,46.66,1043.00,2030.98,2544.31,2505.61,2818.71,600.21,605.12,25.82,0000 0000 0000 0000 000000
2018-01-25 04:10:19,0.09,2.41,0.00,26.11,26.30,29.17,14.04,46.88,1042.99,2030.96,2542.85,2504.54,2817.69,600.42,605.44,25.87,0000 0000 0000 0000 000000
2018-01-25 04:15:20,0.07,2.41,0.00,26.12,26.30,29.18,13.87,46.95,1042.99,2030.98,2541.67,2503.71,2816.67,599.83,605.07,25.92,0000 0000 0000 0000 000000
2018-01-25 04:20:21,0.06,2.42,0.00,26.07,26.30,29.18,14.03,46.93,1042.99,2030.97,2540.60,2502.90,2815.78,599.95,605.07,25.97,0000 0000 0000 0000 000000
2018-01-25 04:25:22,0.07,2.42,0.00,26.08,26.32,29.19,13.88,47.07,1042.76,2030.96,2539.42,2502.08,2814.88,599.80,604.87,26.02,0000 0000 0000 0000 000000
2018-01-25 04:30:24,0.07,2.43,0.00,26.16,26.32,29.20,13.95,47.05,1042.54,2030.94,2538.36,2501.30,2813.95,599.75,604.63,26.07,0000 0000 0000 0000 000000
2018-01-25 04:35:25,0.06,2.43,0.00,26.18,26.33,29.19,13.97,47.08,1042.52,2030.87,2537.29,2500.51,2813.01,599.82,604.54,26.12,0000 0000 0000 0000 000000
2018-01-25 04:40:26,0.04,2.43,0.00,26.21,26.35,29.21,13.97,47.05,1042.50,2030.70,2536.25,2499.87,2812.09,600.41,605.05,26.17,0000 0000 0000 0000 000000
2018-01-25 04:45:28,0.06,2.44,0.00,26.20,26.35,29.23,13.95,47.12,1042.31,2030.64,2535.13,2499.03,2811.27,600.08,604.64,26.22,0000 0000 0000 0000 000000
2018-01-25 04:50:29,0.08,2.44,0.00,26.24,26.35,29.22,13.95,47.04,1042.02,2030.46,2533.85,2498.15,2810.21,600.06,604.36,26.27,0000 0000 0000 0000 000000
2018-01-25 04:55:30,0.06,2.44,0.00,26.20,26.37,29.22,13.93,46.97,1042.02,2030.29,2532.60,2497.23,2809.14,599.66,603.93,26.32,0000 0000 0000 0000 000000
2018-01-25 05:00:31,0.08,2.45,0.00,26.24,26.37,29.23,13.94,46.98,1042.01,2030.28,2531.51,2496.45,2808.16,600.07,604.29,26.37,0000 0000 0000 0000 000000
2018-01-25 05:05:33,0.05,2.45,0.00,26.21,26.37,29.23,13.94,46.96,1041.99,2030.13,2530.36,2495.74,2807.21,600.22,604.58,26.42,0000 0000 0000 0000 000000
2018-01-25 05:10:34,0.06,2.45,0.00,26.21,26.37,29.23,14.05,46.98,1042.01,2030.14,2529.26,2495.02,2806.20,600.29,604.71,26.47,0000 0000 0000 0000 000000
2018-01-25 05:15:35,0.07,2.46,0.00,26.17,26.37,29.22,13.89,46.96,1042.01,2030.06,2528.11,2494.22,2805.29,600.07,604.55,26.52,0000 0000 0000 0000 000000
2018-01-25 05:20:37,0.08,2.46,0.00,26.19,26.37,29.22,13.96,47.12,1042.01,2030.07,2526.87,2493.32,2804.24,600.20,604.60,26.57,0000 0000 0000 0000 000000
2018-01-25 05:25:38,0.06,2.46,0.00,26.14,26.37,29.22,14.06,47.13,1042.01,2030.05,2525.82,2492.67,2803.39,600.43,604.93,26.62,0000 0000 0000 0000 000000
2018-01-25 05:30:40,0.05,2.47,0.00,26.15,26.37,29.22,13.98,46.97,1042.02,2030.06,2524.93,2492.00,2802.58,599.85,604.38,26.67,0000 0000 0000 0000 000000
2018-01-25 05:35:41,0.06,2.47,0.00,26.16,26.37,29.21,14.00,47.02,1042.03,2030.03,2523.90,2491.22,2801.78,600.31,604.89,26.72,0000 0000 0000 0000 000000
2018-01-25 05:40:42,0.06,2.47,0.00,26.16,26.37,29.20,13.92,47.07,1042.04,2030.04,2522.99,2490.66,2800.95,599.79,604.22,26.77,0000 0000 0000 0000 000000
2018-01-25 05:45:43,0.06,2.48,0.00,26.18,26.35,29.20,14.02,47.00,1042.11,2030.02,2522.00,2489.95,2800.06,600.07,604.55,26.82,0000 0000 0000 0000 000000
2018-01-25 05:50:45,0.08,2.48,0.00,26.20,26.35,29.19,13.93,46.83,1042.37,2030.03,2521.02,2489.11,2799.17,599.90,604.50,26.87,0000 0000 0000 0000 000000
2018-01-25 05:55:46,0.07,2.48,0.00,26.24,26.35,29.17,13.88,46.85,1042.49,2030.06,2520.03,2488.56,2798.46,600.02,604.52,26.92,0000 0000 0000 0000 000000
2018-01-25 06:00:47,0.06,2.49,0.00,26.22,26.35,29.18,13.91,46.77,1042.16,2030.05,2518.93,2487.91,2797.60,600.01,604.40,26.97,0000 0000 0000 0000 000000
2018-01-25 06:05:48,0.05,2.49,0.00,26.23,26.35,29.17,14.10,46.90,1042.16,2030.04,2517.94,2487.10,2796.86,600.64,605.11,27.02,0000 0000 0000 0000 000000
2018-01-25 06:10:50,0.08,2.49,0.00,26.21,26.34,29.18,13.99,46.85,1042.49,2030.05,2516.82,2486.34,2795.98,600.38,605.04,27.07,0000 0000 0000 0000 000000
2018-01-25 06:15:51,0.07,2.50,0.00,26.25,26.32,29.17,13.98,46.94,1042.28,2030.05,2515.68,2485.70,2795.07,600.37,604.93,27.12,0000 0000 0000 0000 000000
2018-01-25 06:20:52,0.06,2.50,0.00,26.25,26.32,29.16,13.82,46.86,1042.26,2030.04,2514.62,2484.97,2794.15,599.42,603.85,27.17,0000 0000 0000 0000 000000
2018-01-25 06:25:54,0.08,2.50,0.00,26.22,26.32,29.17,14.00,46.86,1042.46,2030.04,2513.50,2484.13,2793.27,600.18,604.71,27.22,0000 0000 0000 0000 000000
2018-01-25 06:30:55,0.08,2.51,0.00,26.21,26.32,29.16,14.00,46.85,1042.20,2030.03,2512.42,2483.35,2792.33,600.07,604.54,27.27,0000 0000 0000 0000 000000
2018-01-25 06:35:56,0.05,2.51,0.00,26.28,26.32,29.16,14.07,46.78,1042.05,2030.02,2511.53,2482.72,2791.46,600.35,604.59,27.32,0000 0000 0000 0000 000000
2018-01-25 06:40:58,0.06,2.51,0.00,26.24,26.32,29.16,14.03,46.72,1042.02,2030.04,2510.36,2481.99,2790.64,600.05,604.37,27.37,0000 0000 0000 0000 000000
2018-01-25 06:45:59,0.07,2.52,0.00,26.24,26.32,29.16,13.98,46.63,1042.04,2030.03,2509.28,2481.17,2789.65,600.31,604.61,27.42,0000 0000 0000 0000 000000
2018-01-25 06:51:00,0.08,2.52,0.00,26.23,26.32,29.17,13.96,46.61,1042.05,2030.02,2508.13,2480.34,2788.76,600.20,604.70,27.47,0000 0000 0000 0000 000000
2018-01-25 06:56:01,0.06,2.53,0.00,26.24,26.32,29.18,13.92,46.56,1042.03,2030.02,2507.00,2479.75,2787.90,600.09,604.46,27.52,0000 0000 0000 0000 000000
2018-01-25 07:01:02,0.06,2.53,0.00,26.28,26.32,29.18,13.94,46.61,1042.01,2030.02,2505.94,2478.94,2786.98,599.88,604.12,27.57,0000 0000 0000 0000 000000
2018-01-25 07:06:03,0.08,2.53,0.00,26.27,26.34,29.20,13.89,46.60,1042.01,2030.03,2504.82,2478.07,2786.00,600.01,604.27,27.62,0000 0000 0000 0000 000000
2018-01-25 07:11:05,0.09,2.54,0.00,26.27,26.35,29.19,13.95,46.63,1042.01,2030.00,2503.56,2477.17,2784.99,600.01,604.26,27.67,0000 0000 0000 0000 000000
2018-01-25 07:16:06,0.08,2.54,0.00,26.25,26.35,29.21,13.82,46.63,1041.96,2030.00,2502.17,2476.31,2784.03,599.91,604.15,27.72,0000 0000 0000 0000 000000
2018-01-25 07:21:08,0.09,2.55,0.00,26.23,26.35,29.21,13.86,46.71,1041.64,2030.01,2500.76,2475.49,2783.02,600.03,604.15,27.77,0000 0000 0000 0000 000000
2018-01-25 07:26:09,0.08,2.55,0.00,26.27,26.35,29.23,13.89,46.91,1041.54,2030.00,2499.51,2474.55,2781.96,600.12,604.26,27.82,0000 0000 0000 0000 000000
2018-01-25 07:31:11,0.08,2.55,0.00,26.22,26.37,29.24,14.04,46.80,1041.59,2030.00,2498.22,2473.72,2780.88,600.13,604.18,27.87,0000 0000 0000 0000 000000
2018-01-25 07:36:12,0.08,2.56,0.00,26.28,26.37,29.25,13.95,46.82,1041.54,2030.00,2496.88,2472.83,2779.82,600.21,604.17,27.92,0000 0000 0000 0000 000000
2018-01-25 07:41:14,0.09,2.56,0.00,26.29,26.37,29.25,14.06,46.76,1041.51,2030.00,2495.69,2471.86,2778.72,600.45,604.37,27.97,0000 0000 0000 0000 000000
2018-01-25 07:46:15,0.09,2.57,0.00,26.27,26.39,29.26,13.83,46.67,1041.52,2030.00,2494.43,2470.85,2777.50,599.69,603.65,28.02,0000 0000 0000 0000 000000
2018-01-25 07:51:17,0.08,2.57,0.00,26.25,26.40,29.28,14.01,46.71,1041.53,2030.00,2492.96,2469.91,2776.45,600.10,604.00,28.07,0000 0000 0000 0000 000000
2018-01-25 07:56:18,0.08,2.58,0.00,26.30,26.41,29.28,14.07,46.68,1041.52,2030.00,2491.61,2468.96,2775.39,600.45,604.24,28.12,0000 0000 0000 0000 000000
2018-01-25 08:01:19,0.08,2.58,0.00,26.25,26.42,29.29,13.93,46.70,1041.42,2030.00,2490.25,2467.99,2774.23,599.99,604.10,28.17,0000 0000 0000 0000 000000
2018-01-25 08:06:21,0.09,2.59,0.00,26.11,26.42,29.31,13.97,46.74,1041.20,2030.00,2488.89,2467.01,2773.05,600.08,603.99,28.22,0000 0000 0000 0000 000000
2018-01-25 08:11:22,0.08,2.59,0.00,25.96,26.43,29.33,14.04,46.88,1041.48,2030.00,2487.66,2466.08,2771.93,600.36,605.01,28.28,0000 0000 0000 0000 000000
2018-01-25 08:16:23,0.09,2.60,0.00,25.81,26.44,29.35,13.96,47.01,1041.52,2029.99,2486.33,2465.11,2770.80,599.91,604.84,28.33,0000 0000 0000 0000 000000
2018-01-25 08:21:24,0.09,2.60,0.00,25.79,26.45,29.35,13.97,46.92,1041.52,2029.99,2484.94,2464.14,2769.70,599.72,604.70,28.38,0000 0000 0000 0000 000000
2018-01-25 08:26:26,0.10,2.61,0.00,25.76,26.45,29.36,13.99,46.90,1041.48,2029.99,2483.54,2463.14,2768.56,600.04,605.16,28.43,0000 0000 0000 0000 000000
2018-01-25 08:31:27,0.08,2.61,0.00,25.74,26.45,29.38,13.89,46.92,1041.52,2029.99,2482.10,2462.11,2767.47,599.69,604.73,28.48,0000 0000 0000 0000 000000
2018-01-25 08:36:28,0.10,2.62,0.00,25.72,26.46,29.40,13.94,46.77,1041.52,2029.99,2480.76,2461.12,2766.29,599.90,605.01,28.53,0000 0000 0000 0000 000000
2018-01-25 08:41:29,0.09,2.62,0.00,25.70,26.47,29.39,14.00,46.73,1041.48,2029.99,2479.53,2460.18,2765.19,599.74,604.86,28.58,0000 0000 0000 0000 000000
2018-01-25 08:46:30,0.08,2.62,0.00,25.66,26.47,29.42,13.94,46.74,1041.17,2029.97,2478.16,2459.24,2764.02,600.20,605.13,28.63,0000 0000 0000 0000 000000
2018-01-25 08:51:31,0.09,2.63,0.00,25.65,26.47,29.42,14.00,46.93,1041.03,2029.98,2476.81,2458.28,2762.91,599.58,604.46,28.68,0000 0000 0000 0000 000000
2018-01-25 08:56:33,0.09,2.63,0.00,25.66,26.47,29.44,13.94,46.87,1041.04,2029.96,2475.60,2457.26,2761.80,599.83,604.76,28.73,0000 0000 0000 0000 000000
2018-01-25 09:01:34,0.09,2.64,0.00,25.94,26.49,29.41,14.14,46.90,1041.06,2029.97,2474.33,2456.42,2760.71,600.38,604.80,28.78,0000 0000 0000 0000 000000
2018-01-25 09:06:35,0.09,2.64,0.00,26.19,26.50,29.40,13.89,46.89,1041.05,2029.94,2472.93,2455.43,2759.56,600.06,603.94,28.83,0000 0000 0000 0000 000000
2018-01-25 09:11:37,0.09,2.65,0.00,26.21,26.51,29.40,13.97,46.83,1041.06,2029.97,2471.65,2454.36,2758.41,599.93,603.74,28.88,0000 0000 0000 0000 000000
2018-01-25 09:16:38,0.07,2.65,0.00,26.30,26.52,29.39,13.84,46.72,1041.22,2029.83,2470.28,2453.33,2757.17,599.79,603.60,28.93,0000 0000 0000 0000 000000
2018-01-25 09:21:39,0.07,2.66,0.00,26.31,26.52,29.40,13.94,46.95,1041.41,2029.51,2468.66,2452.21,2755.77,600.20,604.08,28.98,0000 0000 0000 0000 000000
2018-01-25 09:26:40,0.08,2.66,0.00,26.25,26.52,29.41,13.98,46.77,1041.51,2029.33,2467.20,2451.06,2754.59,600.29,604.23,29.03,0000 0000 0000 0000 000000
2018-01-25 09:31:42,0.09,2.66,0.00,26.30,26.53,29.42,13.97,46.85,1041.31,2029.27,2465.75,2450.03,2753.44,599.71,603.50,29.08,0000 0000 0000 0000 000000
2018-01-25 09:36:43,0.08,2.67,0.00,26.28,26.55,29.41,13.93,46.91,1041.09,2029.22,2464.44,2449.05,2752.33,600.05,603.69,29.13,0000 0000 0000 0000 000000
2018-01-25 09:41:45,0.08,2.67,0.00,26.29,26.55,29.42,13.91,46.84,1041.08,2029.18,2463.09,2448.08,2751.24,600.06,603.75,29.18,0000 0000 0000 0000 000000
2018-01-25 09:46:46,0.09,2.68,0.00,26.11,26.55,29.44,13.98,46.83,1041.18,2029.14,2461.67,2447.07,2750.20,600.05,604.13,29.23,0000 0000 0000 0000 000000
2018-01-25 09:51:47,0.09,2.68,0.00,25.94,26.55,29.46,13.91,46.75,1041.13,2029.08,2460.35,2446.05,2748.96,599.97,604.37,29.28,0000 0000 0000 0000 000000
2018-01-25 09:56:49,0.08,2.69,0.00,25.92,26.55,29.47,13.96,46.80,1041.05,2029.03,2459.03,2445.13,2747.90,599.80,604.28,29.33,0000 0000 0000 0000 000000
2018-01-25 10:01:50,0.09,2.69,0.00,25.89,26.55,29.46,13.94,46.74,1041.05,2029.04,2457.75,2444.14,2746.86,599.82,604.38,29.38,0000 0000 0000 0000 000000
2018-01-25 10:06:51,0.09,2.70,0.00,25.89,26.56,29.48,14.00,46.73,1041.04,2029.03,2456.50,2443.27,2745.72,599.94,604.55,29.43,0000 0000 0000 0000 000000
2018-01-25 10:11:52,0.09,2.70,0.00,25.87,26.57,29.49,13.96,46.90,1041.03,2029.01,2455.29,2442.28,2744.65,600.19,604.66,29.48,0000 0000 0000 0000 000000
2018-01-25 10:16:54,0.08,2.70,0.00,25.85,26.57,29.50,13.98,46.73,1040.98,2029.03,2454.04,2441.46,2743.72,600.10,604.50,29.53,0000 0000 0000 0000 000000
2018-01-25 10:21:55,0.07,2.71,0.00,25.85,26.58,29.52,13.99,46.76,1040.79,2029.03,2452.91,2440.66,2742.73,599.84,604.23,29.58,0000 0000 0000 0000 000000
2018-01-25 10:26:56,0.07,2.71,0.00,25.86,26.60,29.53,13.98,46.76,1040.58,2029.01,2451.76,2439.90,2741.76,599.81,604.09,29.63,0000 0000 0000 0000 000000
2018-01-25 10:31:57,0.07,2.72,0.00,25.86,26.60,29.56,13.98,46.71,1040.54,2029.00,2450.70,2439.02,2740.81,599.94,604.19,29.68,0000 0000 0000 0000 000000
2018-01-25 10:36:59,0.09,2.72,0.00,25.87,26.62,29.54,13.93,46.81,1040.54,2029.00,2449.52,2438.12,2739.77,599.91,604.11,29.73,0000 0000 0000 0000 000000
2018-01-25 10:42:00,0.08,2.72,0.00,25.88,26.62,29.56,13.97,46.75,1040.25,2029.00,2448.44,2437.31,2738.78,599.96,604.00,29.78,0000 0000 0000 0000 000000
2018-01-25 10:47:01,0.09,2.73,0.00,25.86,26.65,29.58,13.90,46.78,1040.07,2029.00,2447.17,2436.36,2737.68,600.05,604.08,29.83,0000 0000 0000 0000 000000
2018-01-25 10:52:02,0.09,2.73,0.00,25.87,26.65,29.60,13.86,46.93,1040.06,2029.00,2445.86,2435.42,2736.62,599.50,603.48,29.88,0000 0000 0000 0000 000000
2018-01-25 10:57:03,0.09,2.74,0.00,25.88,26.66,29.60,13.97,46.89,1040.06,2028.98,2444.62,2434.48,2735.59,600.29,604.16,29.93,0000 0000 0000 0000 000000
2018-01-25 11:02:05,0.08,2.74,0.00,25.87,26.67,29.61,13.98,46.96,1040.06,2028.98,2443.36,2433.58,2734.48,599.80,603.73,29.98,0000 0000 0000 0000 000000
2018-01-25 11:07:06,0.09,2.75,0.00,25.88,26.67,29.63,14.01,47.05,1039.95,2028.97,2441.99,2432.61,2733.40,600.03,603.79,30.03,0000 0000 0000 0000 000000
2018-01-25 11:12:07,0.09,2.75,0.00,25.89,26.68,29.66,13.94,46.83,1039.92,2028.95,2440.69,2431.69,2732.25,600.21,604.00,30.08,0000 0000 0000 0000 000000
2018-01-25 11:17:09,0.08,2.76,0.00,25.89,26.70,29.69,14.02,46.86,1039.98,2028.91,2439.33,2430.73,2731.06,600.20,604.04,30.13,0000 0000 0000 0000 000000
2018-01-25 11:22:10,0.09,2.76,0.00,25.91,26.70,29.67,13.97,46.83,1039.99,2028.90,2437.96,2429.79,2729.96,599.57,603.47,30.18,0000 0000 0000 0000 000000
2018-01-25 11:27:11,0.10,2.77,0.00,25.93,26.70,29.67,13.93,46.79,1039.86,2028.85,2436.57,2428.80,2728.81,599.84,603.55,30.23,0000 0000 0000 0000 000000
2018-01-25 11:32:13,0.07,2.77,0.00,25.92,26.72,29.68,13.94,46.88,1039.60,2028.92,2435.44,2427.92,2727.79,600.10,603.65,30.28,0000 0000 0000 0000 000000
2018-01-25 11:37:14,0.10,2.78,0.00,25.91,26.72,29.71,13.98,46.67,1039.57,2028.74,2434.00,2426.84,2726.56,600.19,603.86,30.33,0000 0000 0000 0000 000000
2018-01-25 11:42:15,0.07,2.78,0.00,25.91,26.72,29.71,13.97,46.79,1039.55,2028.61,2432.57,2425.79,2725.32,600.15,603.76,30.38,0000 0000 0000 0000 000000
2018-01-25 11:47:17,0.09,2.78,0.00,25.92,26.73,29.72,13.93,47.02,1039.27,2028.46,2431.07,2424.69,2724.05,600.13,603.50,30.43,0000 0000 0000 0000 000000
2018-01-25 11:52:17,0.08,2.79,0.00,25.85,26.75,29.70,13.90,46.85,1039.12,2028.18,2429.59,2423.63,2722.76,599.84,603.25,30.48,0000 0000 0000 0000 000000
2018-01-25 11:57:19,0.09,2.79,0.00,25.77,26.75,29.74,14.03,46.79,1039.12,2028.15,2428.18,2422.62,2721.55,600.43,604.00,30.53,0000 0000 0000 0000 000000
2018-01-25 12:02:20,0.10,2.80,0.00,25.79,26.75,29.75,13.94,46.82,1039.10,2028.07,2426.74,2421.64,2720.43,599.38,603.09,30.58,0000 0000 0000 0000 000000
2018-01-25 12:07:21,0.09,2.80,0.00,25.82,26.75,29.77,14.02,46.79,1039.12,2028.09,2425.31,2420.63,2719.29,600.30,603.75,30.63,0000 0000 0000 0000 000000
2018-01-25 12:12:22,0.09,2.81,0.00,25.83,26.75,29.74,13.94,46.75,1039.18,2028.08,2423.84,2419.69,2718.04,599.90,603.39,30.68,0000 0000 0000 0000 000000
2018-01-25 12:17:23,0.10,2.81,0.00,25.85,26.77,29.77,13.91,46.79,1039.11,2028.03,2422.36,2418.62,2716.85,599.98,603.39,30.73,0000 0000 0000 0000 000000
2018-01-25 12:22:24,0.11,2.82,0.00,25.85,26.77,29.76,13.90,46.80,1039.09,2028.07,2420.79,2417.59,2715.63,599.61,602.95,30.78,0000 0000 0000 0000 000000
2018-01-25 12:27:26,0.09,2.82,0.00,25.87,26.77,29.78,13.91,46.83,1039.09,2028.03,2419.20,2416.49,2714.35,599.56,603.02,30.83,0000 0000 0000 0000 000000
2018-01-25 12:32:27,0.10,2.83,0.00,25.89,26.78,29.77,13.96,46.72,1039.09,2028.01,2417.61,2415.39,2713.00,600.30,603.57,30.88,0000 0000 0000 0000 000000
2018-01-25 12:37:28,0.10,2.83,0.00,25.90,26.80,29.78,14.03,46.86,1039.08,2028.02,2416.11,2414.30,2711.79,600.22,603.52,30.93,0000 0000 0000 0000 000000
2018-01-25 12:42:30,0.11,2.84,0.00,25.90,26.80,29.78,13.99,46.85,1039.08,2028.01,2414.60,2413.21,2710.53,600.01,603.07,30.98,0000 0000 0000 0000 000000
2018-01-25 12:47:31,0.10,2.85,0.00,25.91,26.80,29.80,13.94,46.83,1039.01,2028.01,2412.99,2412.13,2709.25,599.98,603.32,31.03,0000 0000 0000 0000 000000
2018-01-25 12:52:32,0.11,2.85,0.00,25.91,26.81,29.78,13.95,46.75,1038.65,2028.00,2411.41,2410.96,2707.87,599.80,602.83,31.08,0000 0000 0000 0000 000000
2018-01-25 12:57:34,0.13,2.86,0.00,25.93,26.82,29.80,13.99,46.70,1038.60,2028.00,2409.76,2409.81,2706.53,600.12,603.11,31.13,0000 0000 0000 0000 000000